When you browse on this site, cookies collect data to enhance your experience and personalize the content and advertising you see.
Visit our Privacy Policy to learn more. By continuing to use the site, you agree to this use of cookies and data.
  • In United Kingdom
  • List of Countries
  • For 7 days
  • Water Temperature
  • Weather Map
  • Weather Widgets
  • user-avatar
    Login

    Hourly Weather Oruro

    Today, 16 October, Wednesday

    Time Temperature Precipitation Wind Pressure Humidity
    00:00 +8°C° 0 mm 4 mps 478 mmHg 64%
    01:00 +9°C° 0 mm 3 mps 477 mmHg 66%
    02:00 +8°C° 0 mm 3 mps 477 mmHg 69%
    03:00 +8°C° 0 mm 2 mps 476 mmHg 71%
    04:00 +8°C° 0 mm 2 mps 476 mmHg 73%
    05:00 +8°C° 0 mm 1 mps 476 mmHg 74%
    06:00 +8°C° 0 mm 2 mps 477 mmHg 70%
    07:00 +8°C° 0 mm 2 mps 477 mmHg 66%
    08:00 +9°C° 0 mm 2 mps 478 mmHg 62%
    09:00 +12°C° 0 mm 2 mps 479 mmHg 56%
    10:00 +13°C° 0 mm 2 mps 479 mmHg 50%
    11:00 +14°C° 0 mm 2 mps 480 mmHg 43%
    12:00 +15°C° 0.1 mm 2 mps 480 mmHg 41%
    13:00 +16°C° 0.1 mm 3 mps 479 mmHg 38%
    14:00 +16°C° 0.1 mm 3 mps 479 mmHg 36%
    15:00 +17°C° 0.1 mm 4 mps 479 mmHg 36%
    16:00 +17°C° 0.1 mm 4 mps 479 mmHg 36%
    17:00 +16°C° 0.1 mm 5 mps 478 mmHg 36%
    18:00 +14°C° 0.3 mm 5 mps 478 mmHg 44%
    19:00 +13°C° 0.3 mm 4 mps 478 mmHg 52%
    20:00 +11°C° 0.3 mm 4 mps 477 mmHg 61%
    21:00 +10°C° 1.5 mm 4 mps 477 mmHg 66%
    22:00 +9°C° 1.5 mm 3 mps 477 mmHg 71%
    23:00 +8°C° 1.5 mm 3 mps 476 mmHg 76%

    Tomorrow, 17 October, Thursday

    Time Temperature Precipitation Wind Pressure Humidity
    00:00 +8°C° 0.1 mm 2 mps 477 mmHg 75%
    01:00 +9°C° 0.1 mm 1 mps 477 mmHg 73%
    02:00 +9°C° 0.1 mm 1 mps 477 mmHg 72%
    03:00 +9°C° 0.2 mm 1 mps 476 mmHg 72%
    04:00 +9°C° 0.2 mm 1 mps 476 mmHg 73%
    05:00 +8°C° 0.2 mm 2 mps 476 mmHg 74%
    06:00 +8°C° 0.3 mm 2 mps 476 mmHg 72%
    07:00 +8°C° 0.3 mm 2 mps 477 mmHg 69%
    08:00 +8°C° 0.3 mm 2 mps 477 mmHg 67%
    09:00 +9°C° 0.1 mm 2 mps 478 mmHg 60%
    10:00 +12°C° 0.1 mm 2 mps 478 mmHg 53%
    11:00 +13°C° 0.1 mm 2 mps 479 mmHg 46%
    12:00 +14°C° 0.1 mm 2 mps 479 mmHg 44%
    13:00 +14°C° 0.1 mm 2 mps 478 mmHg 41%
    14:00 +15°C° 0.1 mm 2 mps 478 mmHg 39%
    15:00 +15°C° 0.3 mm 2 mps 478 mmHg 39%
    16:00 +14°C° 0.3 mm 3 mps 478 mmHg 39%
    17:00 +14°C° 0.3 mm 3 mps 477 mmHg 39%
    18:00 +13°C° 0.1 mm 4 mps 477 mmHg 46%
    19:00 +12°C° 0.1 mm 5 mps 477 mmHg 52%
    20:00 +9°C° 0.1 mm 7 mps 476 mmHg 58%
    21:00 +9°C° 0 mm 5 mps 477 mmHg 60%
    22:00 +10°C° 0 mm 4 mps 477 mmHg 61%
    23:00 +10°C° 0 mm 2 mps 477 mmHg 62%

    Day after tomorrow, 18 October, Friday

    Time Temperature Precipitation Wind Pressure Humidity
    00:00 +9°C° 0.2 mm 2 mps 477 mmHg 64%
    01:00 +9°C° 0.2 mm 2 mps 476 mmHg 66%
    02:00 +9°C° 0.2 mm 2 mps 476 mmHg 68%
    03:00 +9°C° 0.3 mm 2 mps 476 mmHg 70%
    04:00 +8°C° 0.3 mm 2 mps 476 mmHg 71%
    05:00 +8°C° 0.3 mm 3 mps 476 mmHg 72%
    06:00 +9°C° 0.1 mm 3 mps 476 mmHg 68%
    07:00 +9°C° 0.1 mm 3 mps 477 mmHg 64%
    08:00 +10°C° 0.1 mm 3 mps 478 mmHg 60%
    09:00 +11°C° 0.2 mm 4 mps 478 mmHg 55%
    10:00 +12°C° 0.2 mm 5 mps 479 mmHg 49%
    11:00 +13°C° 0.2 mm 5 mps 480 mmHg 44%
    12:00 +14°C° 0.1 mm 5 mps 479 mmHg 42%
    13:00 +15°C° 0.1 mm 6 mps 479 mmHg 39%
    14:00 +15°C° 0.1 mm 6 mps 479 mmHg 37%
    15:00 +14°C° 0.1 mm 6 mps 478 mmHg 39%
    16:00 +14°C° 0.1 mm 7 mps 477 mmHg 41%
    17:00 +12°C° 0.1 mm 7 mps 477 mmHg 44%
    18:00 +11°C° 0.1 mm 6 mps 476 mmHg 49%
    19:00 +10°C° 0.1 mm 5 mps 476 mmHg 55%
    20:00 +10°C° 0.1 mm 3 mps 476 mmHg 60%
    21:00 +10°C° 0 mm 3 mps 476 mmHg 62%
    22:00 +9°C° 0 mm 3 mps 477 mmHg 64%
    23:00 +9°C° 0 mm 3 mps 477 mmHg 66%

    19 October, Saturday

    Time Temperature Precipitation Wind Pressure Humidity
    00:00 +8°C° 0.1 mm 3 mps 477 mmHg 67%
    01:00 +8°C° 0.1 mm 3 mps 476 mmHg 68%
    02:00 +8°C° 0.1 mm 3 mps 476 mmHg 69%
    03:00 +7°C° 0.4 mm 3 mps 476 mmHg 72%
    04:00 +5°C° 0.4 mm 3 mps 475 mmHg 75%
    05:00 +6°C° 0.4 mm 2 mps 475 mmHg 79%
    06:00 +6°C° 0.5 mm 2 mps 475 mmHg 78%
    07:00 +6°C° 0.5 mm 2 mps 476 mmHg 78%
    08:00 +6°C° 0.5 mm 2 mps 476 mmHg 77%
    09:00 +5°C° 0.3 mm 3 mps 476 mmHg 77%
    10:00 +6°C° 0.3 mm 4 mps 476 mmHg 77%
    11:00 +6°C° 0.3 mm 4 mps 476 mmHg 77%
    12:00 +7°C° 0.1 mm 3 mps 476 mmHg 73%
    13:00 +8°C° 0.1 mm 3 mps 476 mmHg 70%
    14:00 +9°C° 0.1 mm 2 mps 476 mmHg 66%
    15:00 +9°C° 0.5 mm 2 mps 475 mmHg 66%
    16:00 +9°C° 0.5 mm 2 mps 475 mmHg 67%
    17:00 +9°C° 0.5 mm 3 mps 475 mmHg 67%
    18:00 +8°C° 1.3 mm 3 mps 474 mmHg 70%
    19:00 +6°C° 1.3 mm 4 mps 474 mmHg 73%
    20:00 +5°C° 1.3 mm 4 mps 474 mmHg 76%
    21:00 +5°C° 0 mm 3 mps 474 mmHg 75%
    22:00 +5°C° 0 mm 3 mps 474 mmHg 73%
    23:00 +6°C° 0 mm 2 mps 475 mmHg 71%

    20 October, Sunday

    Time Temperature Precipitation Wind Pressure Humidity
    00:00 +7°C° 0 mm 1 mps 475 mmHg 70%
    01:00 +7°C° 0 mm 1 mps 474 mmHg 69%
    02:00 +7°C° 0 mm 1 mps 474 mmHg 67%
    03:00 +6°C° 0 mm 1 mps 474 mmHg 65%
    04:00 +6°C° 0 mm 1 mps 473 mmHg 62%
    05:00 +5°C° 0 mm 1 mps 473 mmHg 59%
    06:00 +6°C° 0 mm 1 mps 474 mmHg 52%
    07:00 +7°C° 0 mm 1 mps 475 mmHg 46%
    08:00 +7°C° 0 mm 1 mps 475 mmHg 40%
    09:00 +8°C° 0 mm 2 mps 476 mmHg 35%
    10:00 +10°C° 0 mm 3 mps 477 mmHg 31%
    11:00 +12°C° 0 mm 4 mps 478 mmHg 27%
    12:00 +13°C° 0 mm 4 mps 478 mmHg 23%
    13:00 +14°C° 0 mm 4 mps 478 mmHg 19%
    14:00 +15°C° 0 mm 4 mps 478 mmHg 15%
    15:00 +15°C° 0 mm 4 mps 478 mmHg 14%
    16:00 +16°C° 0 mm 3 mps 478 mmHg 13%
    17:00 +17°C° 0 mm 3 mps 478 mmHg 11%
    18:00 +14°C° 0 mm 3 mps 477 mmHg 15%
    19:00 +13°C° 0 mm 3 mps 477 mmHg 19%
    20:00 +12°C° 0 mm 2 mps 477 mmHg 23%
    21:00 +10°C° 0 mm 3 mps 476 mmHg 25%
    22:00 +9°C° 0 mm 3 mps 476 mmHg 28%
    23:00 +7°C° 0 mm 4 mps 476 mmHg 30%

    21 October, Monday

    Time Temperature Precipitation Wind Pressure Humidity
    00:00 +7°C° 0 mm 3 mps 475 mmHg 31%
    01:00 +7°C° 0 mm 3 mps 475 mmHg 33%
    02:00 +6°C° 0 mm 2 mps 474 mmHg 34%
    03:00 +5°C° 0 mm 2 mps 473 mmHg 34%
    04:00 +6°C° 0 mm 1 mps 473 mmHg 35%
    05:00 +5°C° 0 mm 1 mps 473 mmHg 35%
    06:00 +6°C° 0 mm 1 mps 474 mmHg 30%
    07:00 +7°C° 0 mm 1 mps 475 mmHg 25%
    08:00 +7°C° 0 mm 0 mps 476 mmHg 20%
    09:00 +10°C° 0 mm 1 mps 476 mmHg 18%
    10:00 +10°C° 0 mm 2 mps 477 mmHg 15%
    11:00 +13°C° 0 mm 2 mps 478 mmHg 13%
    12:00 +14°C° 0 mm 2 mps 478 mmHg 12%
    13:00 +14°C° 0 mm 3 mps 478 mmHg 12%
    14:00 +16°C° 0 mm 3 mps 478 mmHg 12%
    15:00 +16°C° 0 mm 3 mps 478 mmHg 11%
    16:00 +17°C° 0 mm 3 mps 478 mmHg 11%
    17:00 +17°C° 0 mm 3 mps 477 mmHg 10%
    18:00 +16°C° 0 mm 3 mps 477 mmHg 13%
    19:00 +13°C° 0 mm 3 mps 477 mmHg 15%
    20:00 +12°C° 0 mm 3 mps 477 mmHg 17%
    21:00 +11°C° 0 mm 3 mps 476 mmHg 22%
    22:00 +10°C° 0 mm 2 mps 476 mmHg 28%
    23:00 +9°C° 0 mm 2 mps 476 mmHg 34%
    Show more